Change the Weather History Date:

Monday, February 11, 2013

  Actual Average (KLTS) Record (KLTS)
Temperature  
Mean Temperature 44 °F -  
Max Temperature 57 °F 54 °F 53 °F (2015)
Min Temperature 32 °F 31 °F 17 °F (2014)
Degree Days  
Heating Degree Days 20    
Moisture  
Dew Point 24 °F    
Average Humidity 48    
Maximum Humidity 73    
Minimum Humidity 26    
Precipitation  
Precipitation 0.00 in - - ()
Sea Level Pressure  
Sea Level Pressure 30.08 in    
Wind  
Wind Speed 10 mph (ENE)    
Max Wind Speed 17 mph    
Max Gust Speed 17 mph    
Visibility 10 miles    
Events      
Averages and records for this station are not official NWS values.
T = Trace of Precipitation, MM = Missing Value Source: NWS Daily Summary

Daily Weather History Graph

Daily Weather History Graph

Search for Another Location

Airport or City:

Trip Planner

Search our weather history database for the weather conditions in past years. The results will help you decide how hot, cold, wet, or windy it might be!

Date:

Astronomy

Feb. 11, 2013 Rise Set
Actual Time 7:24 AM CST 6:16 PM CST
Civil Twilight 6:58 AM CST 6:41 PM CST
Nautical Twilight 6:29 AM CST 7:11 PM CST
Astronomical Twilight 6:00 AM CST 7:40 PM CST
Moon 7:56 AM CST (2/11) 8:06 PM CST (2/11)
Length of Visible Light 11h 42m
Length of Day
10h 51m
Waxing Crescent, 3% of the Moon is Illuminated
Feb 11
Waxing Crescent
Feb 17
First Quarter
Feb 25
Full
Mar 4
Last Quarter
Mar 11
New

Hourly Weather History & Observations

Time (CST) Temp. Windchill Dew Point Humidity Pressure Visibility Wind Dir Wind Speed Gust Speed Precip Events Conditions
12:53 AM 37.9 °F 31.5 °F 24.1 °F 57% 30.02 in 10.0 mi NE 9.2 mph - N/A   Clear
1:53 AM 37.0 °F 29.8 °F 25.0 °F 62% 30.03 in 10.0 mi ENE 10.4 mph - N/A   Clear
2:53 AM 37.9 °F 30.9 °F 26.1 °F 62% 30.05 in 10.0 mi ENE 10.4 mph - N/A   Clear
3:53 AM 36.0 °F 29.6 °F 25.0 °F 64% 30.07 in 10.0 mi East 8.1 mph - N/A   Clear
4:53 AM 35.1 °F 28.6 °F 25.0 °F 67% 30.08 in 10.0 mi ENE 8.1 mph - N/A   Clear
5:53 AM 33.1 °F 26.1 °F 24.1 °F 70% 30.11 in 10.0 mi ENE 8.1 mph - N/A   Clear
6:53 AM 32.0 °F 24.2 °F 24.1 °F 73% 30.13 in 10.0 mi NE 9.2 mph - N/A   Clear
7:53 AM 33.1 °F 26.9 °F 21.9 °F 64% 30.16 in 10.0 mi ENE 6.9 mph - N/A   Clear
8:53 AM 39.0 °F 32.3 °F 24.1 °F 55% 30.18 in 10.0 mi ENE 10.4 mph - N/A   Clear
9:53 AM 44.1 °F 36.5 °F 21.9 °F 42% 30.19 in 10.0 mi ENE 17.3 mph - N/A   Clear
10:53 AM 46.9 °F - 21.9 °F 37% 30.17 in 10.0 mi ENE 13.8 mph - N/A   Clear
11:53 AM 50.0 °F - 21.9 °F 33% 30.15 in 10.0 mi ENE 15.0 mph - N/A   Clear
12:53 PM 52.0 °F - 21.9 °F 31% 30.12 in 10.0 mi ENE 15.0 mph - N/A   Clear
1:53 PM 54.0 °F - 23.0 °F 30% 30.07 in 10.0 mi East 10.4 mph - N/A   Clear
2:53 PM 55.0 °F - 23.0 °F 29% 30.04 in 10.0 mi East 10.4 mph 17.3 mph N/A   Clear
3:53 PM 57.0 °F - 21.9 °F 26% 30.03 in 10.0 mi East 12.7 mph - N/A   Clear
4:53 PM 55.9 °F - 23.0 °F 28% 30.03 in 10.0 mi East 10.4 mph - N/A   Clear
5:53 PM 54.0 °F - 24.1 °F 31% 30.03 in 10.0 mi ESE 12.7 mph - N/A   Partly Cloudy
6:53 PM 46.9 °F - 24.1 °F 41% 30.04 in 10.0 mi East 8.1 mph - N/A   Mostly Cloudy
7:53 PM 48.9 °F - 26.1 °F 41% 30.05 in 10.0 mi East 5.8 mph - N/A   Overcast
8:53 PM 46.0 °F 41.4 °F 26.1 °F 46% 30.06 in 10.0 mi East 9.2 mph - N/A   Scattered Clouds
9:53 PM 42.1 °F 37.1 °F 27.0 °F 55% 30.04 in 10.0 mi East 8.1 mph - N/A   Clear
10:53 PM 41.0 °F 35.8 °F 27.0 °F 57% 30.01 in 10.0 mi ESE 8.1 mph - N/A   Clear
11:53 PM 42.1 °F 37.7 °F 28.0 °F 58% 30.01 in 10.0 mi East 6.9 mph - N/A   Clear